Location: Saint-Palais-sur-Mer
(45.6429°N, 1.0859°W)
Time: 08:30:27
(UTC+02:00)

TIGRISAT - Pass Details

Date: 30 April 2024
Orbit: 594 x 672 km, 97.7° (Epoch: 20 May)

Event Time Altitude Azimuth Distance (km) Brightness Sun altitude
Rises 04:29:01 0° 114° (ESE) 2,889 ? -20.9°
Reaches altitude 10° 04:32:22 10° 86° (E) 1,971 ? -20.5°
Maximum altitude 04:34:12 13° 60° (ENE) 1,800 ? -20.3°
Drops below altitude 10° 04:36:00 10° 35° (NE) 1,961 ? -20.1°
Sets 04:39:19 0° 7° (N) 2,859 ? -19.8°
